Saginaw, TX

11:16 AM CDT on July 23, 2016 (GMT -0500)
Fort Worth Meacham International

Weather History for KFTW - April, 2012

Change the Weather History Date:

Sunday, April 29, 2012

  Actual Average Record
Temperature  
Mean Temperature 78 °F -  
Max Temperature 87 °F 78 °F 93 °F (2002)
Min Temperature 68 °F 56 °F 43 °F (1998)
Cooling Degree Days 12    
Growing Degree Days 28 (Base 50)    
Moisture  
Dew Point 63 °F    
Average Humidity 69    
Maximum Humidity 90    
Minimum Humidity 38    
Precipitation  
Precipitation 0.00 in - - ()
Sea Level Pressure  
Sea Level Pressure 29.90 in    
Wind  
Wind Speed 13 mph (SSE)    
Max Wind Speed 22 mph    
Max Gust Speed 33 mph    
Visibility 8 miles    
Events      
Averages and records for this station are not official NWS values.
T = Trace of Precipitation, MM = Missing Value Source: NWS Daily Summary

Daily Weather History Graph

Daily Weather History Graph

Search for Another Location

Airport or City:

Trip Planner

Search our weather history database for the weather conditions in past years. The results will help you decide how hot, cold, wet, or windy it might be!

Date:

Astronomy

Apr. 29, 2012 Rise Set
Actual Time 6:43 AM CDT 8:10 PM CDT
Civil Twilight 6:17 AM CDT 8:36 PM CDT
Nautical Twilight 5:46 AM CDT 9:07 PM CDT
Astronomical Twilight 5:13 AM CDT 9:40 PM CDT
Moon 1:26 PM CDT (4/29) 2:11 AM CDT (4/29)
Length of Visible Light 14h 18m
Length of Day
13h 26m
First Quarter, 53% of the Moon is Illuminated
Apr 29
First Quarter
May 5
Full
May 12
Last Quarter
May 20
New
May 28
First Quarter

Hourly Weather History & Observations

Time (CDT) Temp. Heat Index Dew Point Humidity Pressure Visibility Wind Dir Wind Speed Gust Speed Precip Events Conditions
12:53 AM 73.9 °F - 59.0 °F 59% 29.86 in 10.0 mi SSE 13.8 mph 24.2 mph N/A   Clear
1:53 AM 72.0 °F - 61.0 °F 68% 29.86 in 10.0 mi SSE 15.0 mph - N/A   Clear
2:53 AM 70.0 °F - 62.1 °F 76% 29.86 in 10.0 mi SSE 10.4 mph - N/A   Scattered Clouds
3:53 AM 69.1 °F - 63.0 °F 81% 29.85 in 10.0 mi SSE 11.5 mph - N/A   Mostly Cloudy
4:53 AM 69.1 °F - 64.0 °F 84% 29.85 in 9.0 mi SSE 12.7 mph - N/A   Overcast
5:53 AM 69.1 °F - 64.0 °F 84% 29.84 in 8.0 mi SE 11.5 mph - N/A   Overcast
6:26 AM 68.0 °F - 64.4 °F 88% 29.88 in 7.0 mi SE 10.4 mph - N/A   Overcast
6:53 AM 68.0 °F - 64.9 °F 90% 29.86 in 7.0 mi SE 9.2 mph - N/A   Overcast
7:53 AM 69.1 °F - 66.0 °F 90% 29.88 in 5.0 mi SSE 12.7 mph 19.6 mph N/A   Overcast
8:10 AM 69.8 °F - 66.2 °F 88% 29.91 in 5.0 mi SSE 12.7 mph - N/A   Overcast
8:30 AM 69.8 °F - 66.2 °F 88% 29.92 in 5.0 mi SE 13.8 mph - N/A   Overcast
8:51 AM 71.6 °F - 66.2 °F 83% 29.94 in 5.0 mi SSE 13.8 mph - N/A   Overcast
8:53 AM 71.1 °F - 66.9 °F 87% 29.91 in 5.0 mi SSE 12.7 mph - N/A   Overcast
9:00 AM 71.6 °F - 66.2 °F 83% 29.94 in 5.0 mi SSE 12.7 mph - N/A   Overcast
9:14 AM 71.6 °F - 66.2 °F 83% 29.95 in 5.0 mi SSE 10.4 mph - N/A   Overcast
9:53 AM 73.0 °F - 66.9 °F 81% 29.94 in 6.0 mi SSE 9.2 mph - N/A   Haze
10:53 AM 75.0 °F - 68.0 °F 79% 29.96 in 6.0 mi SSE 8.1 mph - N/A   Haze
11:03 AM 75.2 °F - 66.2 °F 73% 29.98 in 7.0 mi South 9.2 mph - N/A   Overcast
11:53 AM 79.0 °F - 66.0 °F 64% 29.95 in 8.0 mi SSE 13.8 mph 18.4 mph N/A   Mostly Cloudy
12:53 PM 81.0 °F 82.7 °F 64.9 °F 58% 29.94 in 9.0 mi South 17.3 mph 21.9 mph N/A   Mostly Cloudy
1:53 PM 84.0 °F 85.8 °F 64.9 °F 53% 29.91 in 9.0 mi South 15.0 mph 25.3 mph N/A   Scattered Clouds
2:53 PM 84.9 °F 85.9 °F 63.0 °F 48% 29.88 in 10.0 mi SSE 15.0 mph 28.8 mph N/A   Partly Cloudy
3:53 PM 87.1 °F 87.5 °F 62.1 °F 43% 29.86 in 10.0 mi South 16.1 mph 27.6 mph N/A   Partly Cloudy
4:53 PM 86.0 °F 85.4 °F 59.0 °F 40% 29.85 in 10.0 mi SSE 21.9 mph 33.4 mph N/A   Partly Cloudy
5:53 PM 84.0 °F 83.0 °F 55.9 °F 38% 29.86 in 10.0 mi South 16.1 mph 27.6 mph N/A   Clear
6:53 PM 82.0 °F 81.7 °F 57.0 °F 42% 29.87 in 10.0 mi SSE 16.1 mph 27.6 mph N/A   Clear
7:53 PM 80.1 °F 80.6 °F 57.9 °F 47% 29.87 in 10.0 mi SSE 15.0 mph - N/A   Clear
8:53 PM 78.1 °F - 59.0 °F 52% 29.90 in 10.0 mi SSE 12.7 mph - N/A   Clear
9:53 PM 78.8 °F - 60.8 °F 54% 29.91 in 10.0 mi SE 11.5 mph - N/A   Clear
10:53 PM 75.0 °F - 62.1 °F 64% 29.91 in 10.0 mi SSE 8.1 mph - 0.00 in   Clear
11:53 PM 75.0 °F - 63.0 °F 66% 29.93 in 10.0 mi South 12.7 mph 17.3 mph N/A   Clear